Weather History for KOMK - July, 2012

Change the Weather History Date:

Wednesday, July 11, 2012

  Actual Average Record
Temperature  
Mean Temperature 80 °F 72 °F  
Max Temperature 100 °F 87 °F 104 °F (2002)
Min Temperature 60 °F 57 °F 42 °F (2008)
Degree Days  
Heating Degree Days 0 1  
Month to date heating degree days 13 11  
Since 1 June heating degree days 155 80  
Since 1 July heating degree days 13 11  
Cooling Degree Days 15 7  
Month to date cooling degree days 92 68  
Year to date cooling degree days 126 175  
Since 1 June cooling degree days 122 152  
Growing Degree Days 30 (Base 50)    
Moisture  
Dew Point 47 °F    
Average Humidity 38    
Maximum Humidity 67    
Minimum Humidity 9    
Precipitation  
Precipitation 0.00 in 0.03 in 0.42 in (1942)
Month to date precipitation 0.05 0.34  
Year to date precipitation 7.60 8.09  
Sea Level Pressure  
Sea Level Pressure 29.88 in    
Wind  
Wind Speed 6 mph (WNW)    
Max Wind Speed 16 mph    
Max Gust Speed 21 mph    
Visibility 10 miles    
Events      
T = Trace of Precipitation, MM = Missing Value Source: NWS Daily Summary

Daily Weather History Graph

Daily Weather History Graph

Search for Another Location

Airport or City:

Trip Planner

Search our weather history database for the weather conditions in past years. The results will help you decide how hot, cold, wet, or windy it might be!

Date:

Astronomy

Jul. 11, 2012 Rise Set
Actual Time 5:08 AM PDT 8:57 PM PDT
Civil Twilight 4:28 AM PDT 9:38 PM PDT
Nautical Twilight 3:33 AM PDT 10:33 PM PDT
Astronomical Twilight 2:09 AM PDT 11:55 PM PDT
Moon 12:01 AM PDT (7/11) 2:25 PM PDT (7/11)
Length of Visible Light 17h 09m
Length of Day
15h 48m
Last Quarter, 43% of the Moon is Illuminated
Jul 11
Last Quarter
Jul 18
New
Jul 26
First Quarter
Aug 1
Full
Aug 9
Last Quarter

Hourly Weather History & Observations

Time (PDT) Temp. Dew Point Humidity Pressure Visibility Wind Dir Wind Speed Gust Speed Precip Events Conditions
12:53 AM 72.0 °F 55.9 °F 57% 29.90 in 10.0 mi NNW 6.9 mph - N/A   Clear
1:53 AM 70.0 °F 54.0 °F 57% 29.91 in 10.0 mi NNW 5.8 mph - N/A   Clear
2:53 AM 64.9 °F 53.1 °F 65% 29.92 in 10.0 mi North 4.6 mph - N/A   Clear
3:53 AM 68.0 °F 51.1 °F 55% 29.92 in 10.0 mi North 9.2 mph - N/A   Clear
4:53 AM 64.9 °F 50.0 °F 58% 29.93 in 10.0 mi NW 4.6 mph - N/A   Clear
5:53 AM 62.1 °F 51.1 °F 67% 29.94 in 10.0 mi Calm Calm - N/A   Clear
6:53 AM 71.1 °F 52.0 °F 51% 29.95 in 10.0 mi North 6.9 mph - N/A   Clear
7:53 AM 73.9 °F 51.1 °F 45% 29.95 in 10.0 mi North 8.1 mph - N/A   Clear
8:53 AM 79.0 °F 48.9 °F 35% 29.94 in 10.0 mi North 9.2 mph - N/A   Clear
9:53 AM 82.9 °F 46.0 °F 27% 29.94 in 10.0 mi North 10.4 mph - N/A   Clear
10:53 AM 88.0 °F 46.0 °F 23% 29.93 in 10.0 mi North 8.1 mph - N/A   Clear
11:53 AM 90.0 °F 48.9 °F 24% 29.91 in 10.0 mi Calm Calm - N/A   Clear
12:53 PM 91.9 °F 52.0 °F 26% 29.89 in 10.0 mi Variable 3.5 mph - N/A   Clear
1:53 PM 96.1 °F 50.0 °F 21% 29.88 in 10.0 mi South 8.1 mph - N/A   Clear
2:53 PM 98.1 °F 39.9 °F 13% 29.86 in 10.0 mi SSW 8.1 mph 19.6 mph N/A   Clear
3:53 PM 99.0 °F 33.1 °F 10% 29.84 in 10.0 mi South 8.1 mph 16.1 mph N/A   Clear
4:53 PM 98.1 °F 30.0 °F 9% 29.82 in 10.0 mi SSW 5.8 mph 17.3 mph N/A   Clear
5:53 PM 98.1 °F 37.9 °F 12% 29.81 in 10.0 mi SSW 4.6 mph - N/A   Clear
6:53 PM 97.0 °F 39.9 °F 14% 29.79 in 10.0 mi SSW 5.8 mph - N/A   Clear
7:53 PM 93.0 °F 45.0 °F 19% 29.79 in 10.0 mi South 3.5 mph - N/A   Clear
8:53 PM 81.0 °F 48.9 °F 33% 29.80 in 10.0 mi Variable 4.6 mph - N/A   Clear
9:53 PM 78.1 °F 46.0 °F 32% 29.82 in 10.0 mi West 4.6 mph - N/A   Clear
10:53 PM 75.9 °F 45.0 °F 33% 29.83 in 10.0 mi West 5.8 mph - N/A   Clear
11:53 PM 73.0 °F 44.1 °F 35% 29.83 in 10.0 mi West 6.9 mph - N/A   Clear